This demonstration page uses our WeatherBlox Daily Observations layout. Learn more.

Left ArrowRight Arrow

41.86663, -103.66717

Hourly Observations for April 9, 2018

Temp ( °F °C ) Dew Point ( °F °C ) Humidity (%) Winds ( mph kmh ) Pressure ( in mb ) Visibility ( mi km ) Precip ( " mm )
12:08 am 00:08 Partly Cloudy 37 3 37 3 100 100 NW 5 7 30.00 1016 10 16 N/A
12:53 am 00:53 Clear 38 3.3 37 2.8 97 97 WNW 7 11 29.93 1014 10 16 N/A
1:53 am 01:53 Clear 39 3.9 38 3.3 96 96 WNW 9 15 29.96 1014 10 16 N/A
2:53 am 02:53 Clear 37 2.8 35 1.7 93 93 WNW 5 7 29.99 1016 10 16 N/A
3:53 am 03:53 Mostly Cloudy 38 3.3 36 2.2 93 93 WNW 7 11 30.01 1016 10 16 N/A
4:53 am 04:53 Clear 35 1.7 33 0.6 93 93 WNW 7 11 30.06 1018 10 16 N/A
5:53 am 05:53 Clear 33 0.6 31 -0.6 92 92 NNW 3 6 30.10 1019 10 16 N/A
6:41 am 06:41 Mostly Cloudy 34 1.1 32 undefined 92 92 NNW 8 13 30.24 1024 10 16 N/A
6:53 am 06:53 Mostly Cloudy 34 1.1 32 undefined 92 92 NW 7 11 30.14 1021 10 16 N/A
7:08 am 07:08 Partly Cloudy 36 2 32 undefined 87 87 NW 5 7 30.21 1023 10 16 N/A
7:53 am 07:53 Sunny 38 3.3 33 0.6 83 83 WNW 8 13 30.19 1022 10 16 N/A
8:53 am 08:53 Sunny 42 5.6 35 1.7 76 76 NW 21 33 30.19 1022 10 16 N/A
9:53 am 09:53 Sunny 47 8.3 35 1.7 63 63 NNW 13 20 30.21 1023 10 16 N/A
10:53 am 10:53 Mostly Cloudy 50 10 35 1.7 57 57 NW 18 30 30.19 1022 10 16 N/A
11:53 am 11:53 Cloudy 51 10.6 32 undefined 48 48 NW 16 26 30.19 1022 10 16 N/A
12:53 pm 12:53 Mostly Cloudy with Light Rain 52 11.1 31 -0.6 45 45 NW 13 20 30.19 1022 N/A N/A
1:53 pm 13:53 Mostly Cloudy 55 12.8 28 -2.2 35 35 NW 20 31 30.17 1022 10 16 N/A
2:53 pm 14:53 Mostly Cloudy 57 13.9 27 -2.8 32 32 WNW 16 26 30.16 1021 10 16 N/A
3:53 pm 15:53 Mostly Cloudy 57 13.9 25 -3.9 29 29 NW 17 28 30.14 1021 10 16 N/A
4:53 pm 16:53 Mostly Sunny 58 14.4 28 -2.2 32 32 NNW 10 17 30.15 1021 10 16 N/A
5:53 pm 17:53 Mostly Sunny 55 12.8 27 -2.8 34 34 NW 18 30 30.17 1022 10 16 N/A
6:53 pm 18:53 Cloudy 53 11.7 31 -0.6 43 43 NE 6 9 30.18 1022 10 16 N/A
7:53 pm 19:53 Clear 48 8.9 31 -0.6 52 52 SSE 3 6 30.19 1022 10 16 N/A
8:53 pm 20:53 Clear 42 5.6 31 -0.6 65 65 SE 8 13 30.22 1023 10 16 N/A
9:53 pm 21:53 Mostly Cloudy 38 3.3 30 -1.1 73 73 E 6 9 30.23 1024 10 16 N/A
10:53 pm 22:53 Clear 36 2.2 29 -1.7 76 76 E 3 6 30.23 1024 10 16 N/A
11:53 pm 23:53 Clear 32 undefined 27 -2.8 82 82 ENE 5 7 30.22 1023 10 16 N/A

Powered by AerisWeather